DW8295 Weather Reports


Display with metric or nautical units.
time (UTC)temp
F
wind
direction
speed
MPH
gust
MPH
rain 1hr
in
rain 24hr
in
rain mn
in
humidity
%
barometer
mb
20260510010524 47 34 0.0 3.0 0.03 0.26 0.26 95 1012.4
20260510010029 47 34 0.0 3.0 0.02 0.25 0.26 95 1012.4
20260510005524 47 34 0.0 0.0 0.03 0.25 0.25 95 1012.4
20260510005026 47 34 0.0 0.0 0.03 0.25 0.25 95 1012.5
20260510004524 47 34 0.0 0.0 0.03 0.25 0.25 95 1012.4
20260510004035 47 34 0.0 0.0 0.03 0.25 0.25 95 1012.3
20260510003520 47 34 0.0 0.0 0.02 0.24 0.24 95 1012.2
20260510003247 46 34 0.0 0.0 0.02 0.24 0.24 95 1012.4
20260510002518 46 33 0.0 0.0 0.03 0.24 0.24 95 1012.4
20260510002033 46 33 0.0 1.0 0.02 0.23 0.23 95 1012.3
20260510001235 46 33 0.0 0.0 0.02 0.23 0.23 94 1012.5
20260510000442 46 33 0.0 2.0 0.02 0.23 0.23 94 1012.5
20260509235941 46 33 0.0 4.0 0.02 0.23 0.23 94 1012.4
20260509235440 46 33 0.0 1.0 0.02 0.22 0.23 94 1012.4
20260509234932 46 64 0.0 1.0 0.02 0.22 0.22 94 1012.4
20260509234430 46 65 0.0 2.0 0.02 0.22 0.22 94 1012.3
20260509233928 46 65 1.0 3.0 0.02 0.22 0.22 94 1012.3
20260509233426 46 65 0.0 3.0 0.02 0.22 0.22 94 1012.2
20260509233146 46 65 1.0 5.0 0.02 0.22 0.22 94 1012.2
20260509232650 46 63 1.0 5.0 0.02 0.21 0.21 94 1012.2
20260509231924 46 68 1.0 4.0 0.02 0.21 0.21 94 1012.3
20260509231423 45 67 1.0 6.0 0.02 0.21 0.21 94 1012.3
20260509230920 45 95 3.0 7.0 0.02 0.21 0.21 94 1012.3
20260509230644 45 86 3.0 9.0 0.02 0.21 0.21 94 1012.4
20260509225917 45 88 3.0 9.0 0.02 0.21 0.21 94 1012.5
20260509225411 45 94 3.0 8.0 0.01 0.20 0.20 94 1012.5
20260509224905 45 127 4.0 8.0 0.02 0.20 0.20 94 1012.5
20260509224359 45 69 3.0 9.0 0.02 0.20 0.20 94 1012.5
20260509223853 45 100 3.0 9.0 0.02 0.20 0.20 94 1012.5
20260509223346 45 58 3.0 8.0 0.02 0.20 0.20 94 1012.6
20260509223100 45 99 4.0 8.0 0.02 0.20 0.20 94 1012.5
20260509222333 45 68 3.0 8.0 0.01 0.19 0.19 94 1012.6
20260509221827 45 93 2.0 8.0 0.01 0.19 0.19 94 1012.6
20260509221322 45 80 2.0 7.0 0.01 0.19 0.19 94 1012.7
20260509220815 45 89 2.0 7.0 0.01 0.19 0.19 94 1012.9
20260509220309 45 90 2.0 7.0 0.01 0.19 0.19 94 1012.9
20260509215804 45 90 2.0 7.0 0.02 0.19 0.19 93 1013.1
20260509215257 46 82 3.0 7.0 0.02 0.19 0.19 93 1013.1
20260509214753 45 90 3.0 6.0 0.01 0.18 0.18 93 1013.2
20260509214245 46 71 2.0 8.0 0.01 0.18 0.18 93 1013.4
20260509213740 46 84 1.0 8.0 0.01 0.18 0.18 93 1013.6
20260509213721 46 89 1.0 6.0 0.01 0.18 0.18 93 1013.7
20260509212734 46 89 2.0 6.0 0.02 0.18 0.18 93 1013.6
20260509212717 46 87 2.0 7.0 0.02 0.18 0.18 93 1013.6
20260509211951 46 82 2.0 7.0 0.02 0.18 0.18 93 1013.5
20260509211227 46 63 1.0 4.0 0.02 0.18 0.18 93 1013.5
20260509210728 46 77 2.0 6.0 0.03 0.18 0.18 93 1013.6
20260509210228 46 92 3.0 6.0 0.03 0.18 0.18 93 1013.6
20260509205727 46 90 2.0 6.0 0.02 0.17 0.17 93 1013.8
20260509205227 46 97 1.0 6.0 0.03 0.17 0.17 93 1013.6
20260509204928 46 67 2.0 7.0 0.03 0.17 0.17 93 1012.9
20260509204813 46 90 2.0 7.0 0.03 0.17 0.17 93 1013.2
20260509203722 46 44 0.0 4.0 0.04 0.17 0.17 93 1013.5
20260509203223 46 43 1.0 8.0 0.03 0.16 0.17 93 1013.7
20260509202720 46 77 2.0 8.0 0.03 0.16 0.16 92 1013.2
20260509202220 46 36 2.0 6.0 0.04 0.16 0.16 93 1012.9
20260509201718 46 66 2.0 6.0 0.04 0.16 0.16 93 1012.9
20260509201218 46 65 1.0 4.0 0.05 0.16 0.16 93 1013.3
20260509200718 46 66 1.0 4.0 0.04 0.15 0.15 92 1013.8
20260509200440 46 92 0.0 2.0 0.05 0.15 0.15 92 1014.2
20260509195718 46 93 1.0 4.0 0.05 0.15 0.15 92 1014.4
20260509195211 46 93 1.0 6.0 0.05 0.14 0.14 92 1014.2
20260509194704 45 94 1.0 6.0 0.05 0.14 0.14 92 1014.1
20260509194158 46 170 1.0 6.0 0.06 0.14 0.14 92 1014.2
20260509193652 45 169 0.0 5.0 0.05 0.13 0.13 92 1014.4
20260509193146 45 169 1.0 5.0 0.06 0.13 0.13 91 1014.4
20260509192906 46 169 0.0 4.0 0.06 0.13 0.13 91 1014.2
20260509192136 46 169 0.0 4.0 0.06 0.12 0.12 92 1014.3
20260509191829 46 169 1.0 5.0 0.06 0.11 0.11 91 1014.3
20260509191715 46 169 1.0 5.0 0.06 0.12 0.12 91 1014.3
20260509190812 46 169 1.0 6.0 0.06 0.10 0.10 91 1014.5
20260509190659 46 169 1.0 4.0 0.06 0.11 0.11 91 1014.3
20260509185604 46 169 2.0 7.0 0.07 0.10 0.10 91 1014.6
20260509185059 46 169 2.0 7.0 0.06 0.09 0.09 91 1014.7
20260509184552 46 173 2.0 6.0 0.06 0.09 0.09 91 1014.8
20260509184046 46 186 2.0 4.0 0.06 0.08 0.08 90 1014.8
20260509183758 46 185 3.0 8.0 0.06 0.08 0.08 90 1014.6
20260509183035 46 187 2.0 8.0 0.06 0.07 0.07 90 1014.7
20260509182531 46 150 2.0 7.0 0.06 0.07 0.07 90 1014.6
20260509182022 46 152 3.0 7.0 0.05 0.06 0.06 90 1014.7
20260509181516 46 177 3.0 7.0 0.05 0.05 0.05 90 1014.8
20260509181012 47 176 3.0 7.0 0.05 0.05 0.05 90 1014.9
20260509180504 47 186 3.0 7.0 0.04 0.04 0.04 90 1014.9
20260509175959 47 185 2.0 6.0 0.04 0.04 0.04 89 1014.8
20260509175452 47 172 1.0 5.0 0.03 0.03 0.03 89 1014.6
20260509174947 47 171 1.0 5.0 0.03 0.03 0.03 89 1014.6
20260509174440 47 171 1.0 6.0 0.03 0.03 0.03 88 1014.6
20260509174154 47 171 1.0 6.0 0.02 0.02 0.02 88 1014.6
20260509173430 47 200 2.0 7.0 0.02 0.02 0.02 87 1014.7
20260509172923 47 201 3.0 7.0 0.01 0.01 0.01 86 1014.6
20260509172638 48 155 2.0 7.0 0.01 0.01 0.01 86 1014.7
20260509171911 48 157 1.0 6.0 0.01 0.01 0.01 85 1014.6
20260509171404 48 161 1.0 6.0 0.00 0.00 0.00 85 1014.6
20260509170859 49 160 1.0 4.0 0.00 0.00 0.00 84 1014.6
20260509170353 49 159 1.0 6.0 0.00 0.00 0.00 83 1014.6
20260509165847 49 159 2.0 6.0 0.00 0.00 0.00 81 1014.7
20260509165557 50 215 2.0 6.0 0.00 0.00 0.00 79 1014.7
20260509164836 50 193 2.0 6.0 0.00 0.00 0.00 77 1014.7
20260509164328 50 196 2.0 7.0 0.00 0.00 0.00 75 1014.7
20260509163823 51 211 2.0 7.0 0.00 0.00 0.00 72 1014.8
20260509163316 51 238 1.0 5.0 0.00 0.00 0.00 72 1014.7
20260509162811 51 238 2.0 12.0 0.00 0.00 0.00 69 1014.8
20260509162307 51 200 4.0 12.0 0.00 0.00 0.00 69 1014.8
20260509162015 51 190 4.0 8.0 0.00 0.00 0.00 70 1014.8
20260509161511 51 184 3.0 8.0 0.00 0.00 0.00 69 1014.9
20260509160747 51 142 2.0 7.0 0.00 0.00 0.00 70 1014.8
20260509160241 51 188 2.0 8.0 0.00 0.00 0.00 70 1014.8
20260509155734 51 168 2.0 9.0 0.00 0.00 0.00 69 1014.8
20260509155228 51 165 2.0 7.0 0.00 0.00 0.00 70 1014.9
20260509154722 51 194 1.0 5.0 0.00 0.00 0.00 70 1014.8
20260509154216 51 198 1.0 7.0 0.00 0.00 0.00 68 1014.8
20260509153711 51 199 2.0 7.0 0.00 0.00 0.00 70 1014.8
20260509153205 51 188 3.0 9.0 0.00 0.00 0.00 71 1014.9
20260509152658 51 186 3.0 9.0 0.00 0.00 0.00 69 1014.9
20260509152418 51 144 3.0 9.0 0.00 0.00 0.00 69 1014.8
20260509151646 52 180 2.0 8.0 0.00 0.00 0.00 67 1014.8
20260509151140 52 192 3.0 7.0 0.00 0.00 0.00 64 1014.6
20260509150634 52 167 4.0 8.0 0.00 0.00 0.00 61 1014.5
20260509150128 52 173 3.0 8.0 0.00 0.00 0.00 58 1014.4
20260509145622 53 184 3.0 7.0 0.00 0.00 0.00 59 1014.2
20260509145338 53 190 2.0 7.0 0.00 0.00 0.00 57 1014.2
20260509144620 53 250 2.0 7.0 0.00 0.00 0.00 60 1014.2
20260509144118 53 182 3.0 7.0 0.00 0.00 0.00 60 1014.1
20260509143617 53 173 4.0 7.0 0.00 0.00 0.00 59 1014.0
20260509143117 53 150 4.0 8.0 0.00 0.00 0.00 62 1014.0
20260509142617 53 167 3.0 8.0 0.00 0.00 0.00 61 1014.0
20260509142117 53 207 3.0 7.0 0.00 0.00 0.00 63 1014.1
20260509141617 53 140 3.0 7.0 0.00 0.00 0.00 61 1014.1
20260509141117 53 205 3.0 7.0 0.00 0.00 0.00 60 1014.1
20260509140615 53 205 3.0 7.0 0.00 0.00 0.00 60 1014.2
20260509140334 53 208 2.0 6.0 0.00 0.00 0.00 59 1014.1
20260509135614 53 204 2.0 7.0 0.00 0.00 0.00 59 1014.0
20260509135114 54 157 3.0 8.0 0.00 0.00 0.00 56 1014.1
20260509134613 54 199 2.0 8.0 0.00 0.00 0.00 56 1014.1
20260509134114 54 155 2.0 7.0 0.00 0.00 0.00 56 1014.0
20260509133613 53 178 2.0 6.0 0.00 0.00 0.00 55 1014.1
20260509133112 53 180 2.0 5.0 0.00 0.00 0.00 57 1014.2
20260509132612 52 175 1.0 5.0 0.00 0.00 0.00 57 1014.3
20260509132105 51 209 3.0 9.0 0.00 0.00 0.00 58 1014.2
20260509131602 52 181 4.0 9.0 0.00 0.00 0.00 57 1014.3
20260509131101 52 168 2.0 7.0 0.00 0.00 0.00 55 1014.2
20260509130602 52 179 2.0 7.0 0.00 0.00 0.00 56 1014.2
20260509125601 52 176 2.0 9.0 0.00 0.00 0.00 63 1014.3
20260509125059 52 181 3.0 9.0 0.00 0.00 0.00 62 1014.3
20260509124559 52 152 2.0 8.0 0.00 0.00 0.00 63 1014.4
20260509124100 52 179 1.0 4.0 0.00 0.00 0.00 63 1014.4
20260509123600 53 228 0.0 4.0 0.00 0.00 0.00 65 1014.4
20260509123059 53 227 1.0 4.0 0.00 0.00 0.00 67 1014.4
20260509122558 53 227 1.0 5.0 0.00 0.00 0.00 61 1014.4
20260509122056 53 232 1.0 5.0 0.00 0.00 0.00 65 1014.3
20260509121555 53 268 0.0 3.0 0.00 0.00 0.00 69 1014.4
20260509121056 52 279 1.0 4.0 0.00 0.00 0.00 66 1014.3
20260509120555 52 279 1.0 4.0 0.00 0.00 0.00 68 1014.3
20260509120319 52 326 0.0 2.0 0.00 0.00 0.00 68 1014.3
20260509115553 51 342 0.0 2.0 0.00 0.00 0.00 68 1014.3
20260509115051 51 342 0.0 2.0 0.00 0.00 0.00 72 1014.2
20260509114551 50 355 0.0 1.0 0.00 0.00 0.00 70 1014.3
20260509114046 50 351 0.0 0.0 0.00 0.00 0.00 69 1014.2
20260509113539 49 351 0.0 1.0 0.00 0.00 0.00 69 1014.4
20260509113033 49 351 0.0 1.0 0.00 0.00 0.00 70 1014.4
20260509112528 48 351 0.0 0.0 0.00 0.00 0.00 75 1014.4
20260509112021 47 351 0.0 0.0 0.00 0.00 0.00 78 1014.4
20260509111516 45 351 0.0 0.0 0.00 0.00 0.00 82 1014.4
20260509111009 44 351 0.0 0.0 0.00 0.00 0.00 85 1014.4
20260509110504 42 351 0.0 0.0 0.00 0.00 0.00 86 1014.2
20260509105957 41 351 0.0 0.0 0.00 0.00 0.00 87 1014.2
20260509105453 40 351 0.0 0.0 0.00 0.00 0.00 87 1014.2
20260509104945 39 351 0.0 0.0 0.00 0.00 0.00 88 1014.2
20260509104702 38 351 0.0 0.0 0.00 0.00 0.00 88 1014.1
20260509103934 38 351 0.0 0.0 0.00 0.00 0.00 89 1014.0
20260509103428 37 351 0.0 0.0 0.00 0.00 0.00 89 1014.0
20260509102922 37 351 0.0 0.0 0.00 0.00 0.00 89 1013.9
20260509102415 36 351 0.0 0.0 0.00 0.00 0.00 89 1013.9
20260509101909 36 351 0.0 0.0 0.00 0.00 0.00 89 1013.7
20260509101404 35 351 0.0 0.0 0.00 0.00 0.00 89 1013.7
20260509100902 35 351 0.0 0.0 0.00 0.00 0.00 88 1013.7
20260509100401 35 351 0.0 0.0 0.00 0.00 0.00 88 1013.6
20260509100122 35 351 0.0 0.0 0.00 0.00 0.00 88 1013.6
20260509095357 35 351 0.0 0.0 0.00 0.00 0.00 88 1013.5
20260509094858 36 351 0.0 0.0 0.00 0.00 0.00 88 1013.4
20260509094357 36 351 0.0 0.0 0.00 0.00 0.00 88 1013.3
20260509094123 36 351 0.0 0.0 0.00 0.00 0.00 88 1013.2
20260509093357 36 351 0.0 0.0 0.00 0.00 0.00 87 1013.2
20260509092857 36 351 0.0 0.0 0.00 0.00 0.00 87 1013.2
20260509092356 36 351 0.0 0.0 0.00 0.00 0.00 87 1013.0
20260509091853 36 351 0.0 0.0 0.00 0.00 0.00 87 1012.9
20260509091845 37 351 0.0 0.0 0.00 0.00 0.00 87 1012.9
20260509090853 37 351 0.0 0.0 0.00 0.00 0.00 87 1012.8
20260509090348 37 351 0.0 0.0 0.00 0.00 0.00 87 1012.8
20260509085848 37 351 0.0 0.0 0.00 0.00 0.00 86 1012.8
20260509085348 37 351 0.0 0.0 0.00 0.00 0.00 86 1012.8
20260509085112 37 351 0.0 0.0 0.00 0.00 0.00 86 1012.8
20260509084347 37 351 0.0 0.0 0.00 0.00 0.00 85 1012.9
20260509083849 38 351 0.0 0.0 0.00 0.00 0.00 85 1012.8
20260509083348 38 351 0.0 0.0 0.00 0.00 0.00 85 1012.8
20260509082848 38 351 0.0 0.0 0.00 0.00 0.00 85 1012.9
20260509082612 38 351 0.0 0.0 0.00 0.00 0.00 85 1012.9
20260509081845 38 351 0.0 0.0 0.00 0.00 0.00 84 1012.9
20260509081344 39 351 0.0 0.0 0.00 0.00 0.00 84 1012.9
20260509080844 39 351 0.0 0.0 0.00 0.00 0.00 84 1013.0
20260509080343 39 351 0.0 0.0 0.00 0.00 0.00 83 1013.0
20260509075843 39 351 0.0 0.0 0.00 0.00 0.00 83 1013.0
20260509075345 40 351 0.0 0.0 0.00 0.00 0.00 83 1013.0
20260509074843 40 351 0.0 0.0 0.00 0.00 0.00 84 1013.0
20260509074344 40 351 0.0 0.0 0.00 0.00 0.00 84 1012.9
20260509073845 40 351 0.0 0.0 0.00 0.00 0.00 84 1012.9
20260509073340 40 351 0.0 0.0 0.00 0.00 0.00 84 1012.9
20260509072839 40 351 0.0 0.0 0.00 0.00 0.00 84 1012.9
20260509072339 40 351 0.0 0.0 0.00 0.00 0.00 84 1012.9
20260509071839 41 351 0.0 0.0 0.00 0.00 0.00 84 1012.9
20260509071339 41 351 0.0 0.0 0.00 0.00 0.00 83 1012.8
20260509070839 41 351 0.0 0.0 0.00 0.00 0.00 83 1012.8
20260509070340 41 351 0.0 0.0 0.00 0.00 0.00 83 1012.7
20260509065839 41 351 0.0 0.0 0.00 0.00 0.00 83 1012.7
20260509065339 41 351 0.0 0.0 0.00 0.00 0.00 82 1012.7
20260509064839 41 351 0.0 0.0 0.00 0.00 0.00 82 1012.7
20260509064602 41 351 0.0 0.0 0.00 0.00 0.00 82 1012.7
20260509063839 42 351 0.0 0.0 0.00 0.00 0.00 81 1012.7
20260509063339 42 351 0.0 0.0 0.00 0.00 0.00 81 1012.7
20260509062839 42 351 0.0 0.0 0.00 0.00 0.00 81 1012.7
20260509062339 42 351 0.0 0.0 0.00 0.00 0.00 80 1012.6
20260509061837 42 351 0.0 0.0 0.00 0.00 0.00 80 1012.6
20260509061338 43 351 0.0 0.0 0.00 0.00 0.00 80 1012.5
20260509060837 43 351 0.0 0.0 0.00 0.00 0.00 79 1012.5
20260509060330 43 351 0.0 0.0 0.00 0.00 0.00 78 1012.6
20260509055824 43 351 0.0 0.0 0.00 0.00 0.00 77 1012.5
20260509055318 44 351 0.0 0.0 0.00 0.00 0.00 77 1012.5
20260509054812 44 351 0.0 0.0 0.00 0.00 0.00 76 1012.4
20260509054304 44 351 0.0 0.0 0.00 0.00 0.00 75 1012.3
20260509053758 44 351 0.0 0.0 0.00 0.00 0.00 74 1012.3
20260509053252 44 351 0.0 0.0 0.00 0.00 0.00 74 1012.4
20260509052746 44 351 0.0 0.0 0.00 0.00 0.00 74 1012.3
20260509052244 44 351 0.0 0.0 0.00 0.00 0.00 74 1012.4
20260509051743 44 351 0.0 0.0 0.00 0.00 0.00 74 1012.4
20260509051241 44 351 0.0 1.0 0.00 0.00 0.00 74 1012.4
20260509051009 44 351 0.0 1.0 0.00 0.00 0.00 73 1012.5
20260509050508 43 351 0.0 0.0 0.00 0.00 0.00 73 1012.5
20260509045739 43 351 0.0 0.0 0.00 0.00 0.00 74 1012.5
20260509045241 43 351 0.0 0.0 0.00 0.00 0.00 73 1012.5
20260509044737 43 351 0.0 0.0 0.00 0.00 0.00 74 1012.4
20260509044456 43 351 0.0 0.0 0.00 0.00 0.00 74 1012.4
20260509043732 44 351 0.0 0.0 0.00 0.00 0.00 73 1012.4
20260509043449 44 351 0.0 0.0 0.00 0.00 0.00 73 1012.4
20260509042731 43 351 0.0 0.0 0.00 0.00 0.00 72 1012.4
20260509042231 43 351 0.0 0.0 0.00 0.00 0.00 71 1012.3
20260509042216 43 351 0.0 0.0 0.00 0.00 0.00 71 1012.3
20260509041229 43 351 0.0 0.0 0.00 0.00 0.00 72 1012.2
20260509040727 43 351 0.0 0.0 0.00 0.00 0.00 72 1012.1
20260509040227 44 351 0.0 0.0 0.00 0.00 0.00 72 1012.0
20260509035726 43 351 0.0 0.0 0.00 0.00 0.00 72 1012.0
20260509035223 43 351 0.0 0.0 0.00 0.00 0.00 71 1011.9
20260509034724 43 351 0.0 0.0 0.00 0.00 0.00 71 1011.9
20260509034218 43 351 0.0 0.0 0.00 0.00 0.00 71 1011.8
20260509033711 43 351 0.0 0.0 0.00 0.00 0.00 71 1011.8
20260509033206 43 351 0.0 0.0 0.00 0.00 0.00 72 1011.7
20260509032659 43 351 0.0 0.0 0.00 0.00 0.00 72 1011.6
20260509032154 43 351 0.0 0.0 0.00 0.00 0.00 72 1011.6
20260509031648 43 351 0.0 0.0 0.00 0.00 0.00 72 1011.5
20260509031408 43 351 0.0 0.0 0.00 0.00 0.00 73 1011.5
20260509030636 43 351 0.0 0.0 0.00 0.00 0.00 73 1011.4
20260509030129 42 351 0.0 0.0 0.00 0.00 0.00 72 1011.4
20260509025624 42 351 0.0 0.0 0.00 0.00 0.00 71 1011.4
20260509025117 42 351 0.0 0.0 0.00 0.00 0.00 70 1011.4
20260509024611 42 351 0.0 0.0 0.00 0.00 0.00 68 1011.4
20260509024106 42 351 0.0 0.0 0.00 0.00 0.00 68 1011.4
20260509023600 42 351 0.0 0.0 0.00 0.00 0.00 69 1011.4
20260509023318 42 351 0.0 0.0 0.00 0.00 0.00 69 1011.3
20260509022813 42 351 0.0 0.0 0.00 0.00 0.00 67 1011.2
20260509022042 42 351 0.0 0.0 0.00 0.00 0.00 67 1011.2
20260509021535 42 351 0.0 0.0 0.00 0.00 0.00 67 1011.1
20260509021030 42 351 0.0 0.0 0.00 0.00 0.00 66 1011.0
20260509020524 43 351 0.0 0.0 0.00 0.00 0.00 66 1010.9
20260509020018 43 351 0.0 0.0 0.00 0.00 0.00 67 1010.9
20260509015512 43 351 0.0 0.0 0.00 0.00 0.00 66 1010.7
20260509015005 43 351 0.0 0.0 0.00 0.00 0.00 65 1010.6
20260509014459 43 351 0.0 0.0 0.00 0.00 0.00 64 1010.6
20260509013955 44 351 0.0 0.0 0.00 0.00 0.00 64 1010.5
20260509013447 44 351 0.0 0.0 0.00 0.00 0.00 64 1010.5
20260509012942 44 351 0.0 0.0 0.00 0.00 0.00 64 1010.5
20260509012436 44 351 0.0 0.0 0.00 0.00 0.00 64 1010.4
20260509011929 44 351 0.0 0.0 0.00 0.00 0.00 63 1010.2
20260509011650 45 351 0.0 0.0 0.00 0.00 0.00 61 1010.1
20260509010918 45 351 0.0 0.0 0.00 0.00 0.00 62 1010.1